Flag for Austria Weather past 2 weeks in Krems, Lower Austria, Austria

Now
63 °F

Mild.


Feels Like: 63 °F
Forecast: 56 / 82 °F
Wind: 3 mph from North

Location: Retz

Current Time: Jul 25, 2014 at 4:11:28 AM

Latest Report: Jul 25, 2014 at 3:00 AM


Visibility: N/A

Pressure: 29.88 "Hg

Humidity: 75%

Dew point: 55 °F

Location of KremsLocation

Historic Weather in Krems — Graph

°F

Krems temperature yesterday

Maximum temperature yesterday: 77 °F (at 3:00 PM)
Minimum temperature yesterday: 59 °F (at 5:00 AM)
Average temperature yesterday: 68 °F

Past Weeks' High & Low Weather Summary

 TemperatureHumidityPressure
High90 °F (Jul 20, 3:00 PM)96% (Jul 14, 6:00 AM)30.12 "Hg (Jul 14, 6:00 AM)
Low50 °F (Jul 10, 6:00 AM)34% (Jul 17, 3:00 PM)29.65 "Hg (Jul 21, 4:00 PM)
Average70 °F66%29.89 "Hg
* Reported Jul 10 2:00 AM — Jul 25 2:00 AM, Krems, Weather by CustomWeather, © 2014

Note: Actual official high and low records may vary slightly from our data, if they occured in-between our weather recording intervals... More about our weather records

Advertising

Krems weather history for previous 24 hours

 ConditionsComfort  
Time TempWeatherWind HumidityBarometerVisibility
2:00 AM
Jul 25
64 °FMild.2 mph72%29.89 "HgN/A
1:00 AM65 °FMild.3 mph70%29.89 "HgN/A
12:00 AM66 °FMild.2 mph64%29.89 "HgN/A
11:00 PM
Jul 24
65 °FMild.1 mph69%29.88 "HgN/A
10:00 PM67 °FMild.3 mph61%29.85 "HgN/A
9:00 PM69 °FMild.2 mph60%29.84 "HgN/A
8:00 PM73 °FPassing clouds.2 mph53%29.82 "Hg17 mi
7:00 PM76 °FMild.2 mph50%29.81 "HgN/A
6:00 PM77 °FWarm.3 mph47%29.80 "HgN/A
5:00 PM76 °FMild.2 mph49%29.80 "HgN/A
4:00 PM76 °FMild.3 mph47%29.80 "HgN/A
3:00 PM77 °FWarm.3 mph42%29.80 "HgN/A
2:00 PM75 °FScattered clouds.5 mph46%29.82 "Hg19 mi
1:00 PM73 °FMild.3 mph53%29.83 "HgN/A
12:00 PM72 °FMild.3 mph59%29.83 "HgN/A
11:00 AM70 °FMild.1 mph65%29.84 "HgN/A
10:00 AM68 °FMild.3 mph67%29.85 "HgN/A
9:00 AM65 °FMild.3 mph72%29.87 "HgN/A
8:00 AM64 °FPassing clouds.3 mph72%29.87 "Hg11 mi
7:00 AM61 °FCool.3 mph74%29.87 "HgN/A
6:00 AM59 °FCool.3 mph79%29.88 "HgN/A
5:00 AM59 °FCool.3 mph79%29.88 "HgN/A
4:00 AM60 °FCool.3 mph74%29.88 "HgN/A
Weather by CustomWeather, © 2014

See weather overviewHow to use our weather pages